[[{"header":{"parameterUnit":"m.s-1","parameterCategory":1,"la1":30.2991,"la2":30.254,"lo1":-89.0895,"lo2":-89.0444,"dy":0.0017,"dx":0.0017,"nx":28,"ny":28,"refTime":"2025-03-09T09:00:00:Z","depth":0,"parameterNumber":2,"parameterNumberName":"U-component_of_WINDS"},"data":[0,0,0,0,0,0,0,0,0,0,0,0,0,0,0,0,0,0,0,0,0,0,0,0,0,0,0,0,0,0,0,0,0,0,0,0,0,0,0,0,0,0,0,0,0,0,0,0,0,0,0,0,0,0,0,0,0,0,2.7111,2.7111,0,2.7147,2.7148,2.7148,2.7115,2.7114,2.7113,2.7111,2.7149,2.7151,2.7153,0,0,0,0,0,0,0,0,0,0,0,0,0,2.7015,2.7017,2.7111,2.7111,2.7112,2.7147,2.7148,2.7148,2.7116,2.7114,2.7112,2.7111,2.7148,2.7151,2.7153,0,0,0,0,0,0,0,0,0,0,0,0,0,2.7054,2.7017,2.7111,2.71,2.7099,2.7147,2.7148,2.7148,2.7116,2.7114,2.7112,2.711,2.7147,2.715,2.7154,2.7215,0,0,2.7164,2.7165,0,0,0,0,0,0,0,0,2.7052,2.7058,2.7101,2.7101,2.71,2.7125,2.7128,2.7171,2.7116,2.711,2.7111,2.7109,2.7142,2.7146,2.7157,2.7216,2.7218,2.7164,2.7166,2.7168,2.7169,0,0,0,0,0,0,0,2.7049,2.7056,2.7125,2.7102,2.7101,2.7094,2.7097,2.7136,2.7137,2.711,2.7108,2.7112,2.7142,2.7154,2.7158,2.7218,2.7164,2.7167,2.7169,2.7171,2.7332,2.7335,0,0,0,0,0,0,2.7048,2.7054,2.7124,2.7126,2.7071,2.7097,2.7101,2.7119,2.7136,2.7137,2.7114,2.7111,2.7149,2.7154,2.7159,2.7233,2.7168,2.7171,2.7173,2.733,2.7333,2.7335,0,0,0,0,0,0,2.7046,2.7054,2.7123,2.709,2.7098,2.7101,2.7121,2.7121,2.7133,2.7139,2.7139,2.7126,2.7148,2.7154,2.7202,2.7234,2.7172,2.7175,2.7327,2.7331,2.7334,2.7382,0,0,0,0,0,0,2.7043,2.7054,2.7076,2.709,2.71,2.7164,2.7123,2.7123,2.7139,2.7135,2.7151,2.7152,2.7147,2.7197,2.7205,2.7238,2.7178,2.7325,2.7329,2.7333,2.7377,2.7386,2.7394,0,0,0,0,0,2.704,2.7088,2.7078,2.7086,2.7128,2.7166,2.7171,2.7165,2.7141,2.7165,2.7169,2.7151,2.7229,2.7202,2.7211,2.7245,2.7322,2.7328,2.7333,2.7373,2.7384,2.7394,0,0,0,0,0,0,2.7077,2.7089,2.7078,2.7132,2.7148,2.7161,2.7189,2.7176,2.72,2.7195,2.7186,2.719,2.724,2.7247,2.7217,2.7306,2.7272,2.7279,2.73,2.7311,2.7319,2.7317,2.7181,0,0,0,0,0,2.7091,2.7121,2.713,2.7177,2.7186,2.7186,2.7203,2.7196,2.7213,2.722,2.7227,2.7245,2.7273,2.7292,2.7319,2.7378,2.7382,2.7406,2.7415,2.7422,2.7428,2.7463,2.7474,2.7352,2.7352,2.7352,0,0,2.7121,2.7132,2.7151,2.7184,2.7196,2.7228,2.7192,2.7227,2.7251,2.7225,2.7271,2.7277,2.7296,2.735,2.7375,2.7358,2.7463,2.7428,2.7434,2.7436,2.7469,2.7481,2.7491,2.7356,2.7355,2.7355,0,0,2.7192,2.7202,2.7243,2.7257,2.7276,2.7276,2.7286,2.7301,2.7305,2.7351,2.7333,2.7361,2.741,2.7425,2.7439,2.7519,2.7504,2.7528,2.7572,2.7606,2.7615,2.7624,2.7654,2.7665,2.7534,2.7534,2.7534,0,2.7227,2.7274,2.7266,2.7303,2.7319,2.7298,2.7341,2.7354,2.738,2.7393,2.7373,2.7436,2.7447,2.7506,2.7526,2.7537,2.7549,2.7526,2.7614,2.7623,2.7631,2.766,2.7671,2.7537,2.7537,2.7536,2.7536,0,2.7317,2.735,2.7381,2.7408,2.7428,2.7467,2.7467,2.7488,2.748,2.7483,2.7532,2.7544,2.7574,2.7588,2.758,2.7646,2.7636,2.7616,2.7581,2.7645,2.7673,2.7683,2.7541,2.754,2.7539,2.7538,0,0,2.7411,2.7435,2.7447,2.746,2.7481,2.7507,2.7546,2.7576,2.7595,2.7615,2.7649,2.7692,2.7674,2.769,2.7684,2.7714,2.7779,2.769,2.7691,2.7708,2.7856,2.7872,2.7884,2.7769,2.7771,2.7773,2.7855,0,2.7485,2.7553,2.7548,2.7613,2.7645,2.7626,2.7661,2.7678,2.7683,2.7711,2.7715,2.7747,2.772,2.773,2.7759,2.7765,2.7809,2.7759,2.7802,2.7804,2.7799,2.7898,2.7915,2.7991,2.7865,2.7867,2.7868,0,2.7579,2.7603,2.7672,2.769,2.7703,2.7734,2.7762,2.7789,2.7809,2.781,2.7829,2.7819,2.7861,2.7825,2.7883,2.7849,2.7867,2.7873,2.7876,2.788,2.784,2.7907,2.8015,2.8027,2.7884,2.7883,2.7882,0,2.7643,2.7693,2.7741,2.7753,2.7774,2.7797,2.7807,2.7825,2.7844,2.7869,2.7882,2.7911,2.7927,2.7951,2.795,2.7924,2.8009,2.7973,2.8013,2.8013,2.8032,2.8031,2.8146,2.8041,2.8041,2.8041,2.8041,0,2.7727,2.777,2.7771,2.78,2.7849,2.7843,2.7892,2.7899,2.7916,2.7948,2.7933,2.7963,2.7959,2.799,2.799,2.8039,2.8046,2.8049,2.8049,2.8052,2.8051,2.8064,2.8059,2.8044,2.8043,2.8043,2.8042,0,2.7807,2.7809,2.786,2.7878,2.7883,2.7918,2.7933,2.7962,2.7966,2.8007,2.8016,2.8022,2.8058,2.8059,2.81,2.81,2.8161,2.8153,2.8154,2.8153,2.8194,2.8191,2.8322,2.834,2.8222,2.8223,2.8224,0,2.786,2.7893,2.7915,2.7935,2.7947,2.798,2.8,2.7996,2.8018,2.8044,2.8071,2.8105,2.8133,2.8191,2.82,2.8232,2.8226,2.827,2.8231,2.8234,2.8229,2.8228,2.8232,2.8278,2.8279,2.828,2.8281,0,2.7956,2.7956,2.7985,2.8016,2.804,2.8064,2.8086,2.8103,2.8103,2.8128,2.8165,2.8187,2.8229,2.8265,2.8296,2.8307,2.8296,2.8294,2.8305,2.8308,2.8308,2.8311,2.8177,2.8291,2.829,2.8289,2.8288,2.8288,2.8026,2.8055,2.8075,2.8109,2.8126,2.8147,2.8176,2.8184,2.8215,2.825,2.8246,2.8288,2.8309,2.835,2.8364,2.8397,2.8382,2.8398,2.8403,2.8407,2.8412,2.8302,2.8403,2.8403,2.8402,2.8402,2.8402,0,2.8122,2.8135,2.8166,2.8198,2.8225,2.8211,2.8235,2.8259,2.8296,2.8317,2.8345,2.8389,2.8424,2.8436,2.847,2.8495,2.849,2.8504,2.8503,2.8506,2.8423,2.841,2.8507,2.8507,2.8507,2.8507,2.8507,2.8507,2.8176,2.8226,2.8228,2.8287,2.8299,2.834,2.8356,2.8376,2.8393,2.8443,2.8472,2.848,2.8498,2.8534,2.8566,2.8568,2.8583,2.8599,2.86,2.8522,2.8511,2.8501,2.849,2.8602,2.8602,2.8681,2.8681,2.8682]},{"header":{"parameterUnit":"m.s-1","parameterCategory":1,"la1":30.2991,"la2":30.254,"lo1":-89.0895,"lo2":-89.0444,"dy":0.0017,"dx":0.0017,"nx":28,"ny":28,"refTime":"2025-03-09T09:00:00:Z","depth":0,"parameterNumber":3,"parameterNumberName":"V-component_of_WINDS"},"data":[0,0,0,0,0,0,0,0,0,0,0,0,0,0,0,0,0,0,0,0,0,0,0,0,0,0,0,0,0,0,0,0,0,0,0,0,0,0,0,0,0,0,0,0,0,0,0,0,0,0,0,0,0,0,0,0,0,0,-5.2342,-5.2343,0,-5.2449,-5.2451,-5.2452,-5.2465,-5.2463,-5.2462,-5.2461,-5.2567,-5.2571,-5.2575,0,0,0,0,0,0,0,0,0,0,0,0,0,-5.2145,-5.2149,-5.2342,-5.2343,-5.2344,-5.2449,-5.2451,-5.2452,-5.2465,-5.2463,-5.2462,-5.2461,-5.2566,-5.2571,-5.2575,0,0,0,0,0,0,0,0,0,0,0,0,0,-5.2239,-5.215,-5.2341,-5.2363,-5.2366,-5.2449,-5.2451,-5.2453,-5.2465,-5.2463,-5.2462,-5.246,-5.2565,-5.257,-5.2576,-5.2643,0,0,-5.2593,-5.2596,0,0,0,0,0,0,0,0,-5.2234,-5.2247,-5.2359,-5.2362,-5.2366,-5.2442,-5.242,-5.2516,-5.2465,-5.2427,-5.2461,-5.246,-5.2527,-5.2535,-5.2559,-5.2647,-5.2652,-5.2594,-5.2597,-5.26,-5.2601,0,0,0,0,0,0,0,-5.2228,-5.2242,-5.2384,-5.236,-5.2365,-5.2367,-5.2379,-5.2439,-5.2484,-5.2431,-5.2432,-5.2445,-5.2528,-5.2553,-5.2561,-5.2654,-5.2594,-5.2599,-5.2602,-5.2604,-5.2806,-5.2807,0,0,0,0,0,0,-5.2217,-5.2236,-5.2381,-5.2387,-5.2295,-5.2372,-5.2385,-5.2419,-5.2484,-5.2492,-5.2446,-5.2445,-5.2544,-5.2555,-5.2565,-5.265,-5.26,-5.2605,-5.2608,-5.2804,-5.2806,-5.2808,0,0,0,0,0,0,-5.2213,-5.223,-5.2376,-5.2312,-5.2331,-5.2377,-5.2415,-5.2422,-5.2447,-5.2495,-5.2503,-5.2463,-5.2544,-5.2557,-5.2624,-5.2654,-5.2608,-5.2613,-5.2801,-5.2804,-5.2807,-5.2818,0,0,0,0,0,0,-5.2207,-5.2228,-5.2254,-5.2313,-5.2335,-5.2434,-5.2417,-5.2425,-5.2458,-5.2457,-5.2514,-5.2522,-5.2543,-5.2616,-5.263,-5.2661,-5.2617,-5.2799,-5.2803,-5.2806,-5.2815,-5.2821,-5.2826,0,0,0,0,0,-5.22,-5.2252,-5.2256,-5.2273,-5.2368,-5.2436,-5.2448,-5.2473,-5.246,-5.2486,-5.2518,-5.252,-5.2648,-5.2622,-5.2639,-5.2671,-5.2797,-5.2802,-5.2806,-5.2813,-5.282,-5.2826,0,0,0,0,0,0,-5.2193,-5.2259,-5.2265,-5.2337,-5.2381,-5.2438,-5.2472,-5.2479,-5.2527,-5.2524,-5.2552,-5.2565,-5.2631,-5.2658,-5.2628,-5.2741,-5.2721,-5.2729,-5.2721,-5.2728,-5.2733,-5.2726,-5.2622,0,0,0,0,0,-5.22,-5.225,-5.2305,-5.2363,-5.2386,-5.2425,-5.2455,-5.2471,-5.2517,-5.2536,-5.2572,-5.2616,-5.2666,-5.2698,-5.2747,-5.2819,-5.2833,-5.285,-5.2855,-5.286,-5.2866,-5.2909,-5.2918,-5.2822,-5.2822,-5.2822,0,0,-5.2214,-5.2257,-5.2286,-5.2363,-5.2399,-5.2451,-5.244,-5.2494,-5.2533,-5.2543,-5.261,-5.2638,-5.2689,-5.276,-5.2792,-5.2784,-5.2896,-5.2865,-5.2868,-5.2872,-5.2914,-5.2923,-5.2931,-5.2825,-5.2825,-5.2824,0,0,-5.2267,-5.2304,-5.2358,-5.2395,-5.2451,-5.2478,-5.2491,-5.2548,-5.2568,-5.2635,-5.2645,-5.2691,-5.2776,-5.2814,-5.2843,-5.2914,-5.2918,-5.2929,-5.2957,-5.2998,-5.3005,-5.3012,-5.3039,-5.3048,-5.2935,-5.2935,-5.2935,0,-5.2278,-5.2356,-5.2384,-5.2439,-5.2473,-5.2488,-5.2543,-5.2577,-5.2645,-5.2669,-5.2658,-5.2769,-5.2804,-5.2885,-5.2902,-5.2925,-5.2942,-5.2923,-5.3002,-5.3009,-5.3016,-5.3042,-5.3052,-5.2936,-5.2936,-5.2936,-5.2936,0,-5.2367,-5.2422,-5.2459,-5.2527,-5.2565,-5.262,-5.2656,-5.2691,-5.2705,-5.2733,-5.2802,-5.2846,-5.2905,-5.2925,-5.2937,-5.3009,-5.3002,-5.2997,-5.2978,-5.3026,-5.3051,-5.3061,-5.2938,-5.2937,-5.2937,-5.2937,0,0,-5.2416,-5.2503,-5.2516,-5.2548,-5.2613,-5.2655,-5.2711,-5.2771,-5.2802,-5.2849,-5.2897,-5.2971,-5.2968,-5.3002,-5.3019,-5.3055,-5.3111,-5.3046,-5.3047,-5.3057,-5.3194,-5.3199,-5.321,-5.3114,-5.3116,-5.3118,-5.3191,0,-5.2478,-5.258,-5.2608,-5.2694,-5.2746,-5.2762,-5.2811,-5.2856,-5.2884,-5.2931,-5.2962,-5.3015,-5.3005,-5.3027,-5.3063,-5.3096,-5.3139,-5.3091,-5.316,-5.3162,-5.3147,-5.3222,-5.3226,-5.3293,-5.32,-5.3202,-5.3203,0,-5.2562,-5.2615,-5.2706,-5.2767,-5.279,-5.2834,-5.2893,-5.2938,-5.2989,-5.3007,-5.3048,-5.3062,-5.3121,-5.31,-5.3183,-5.315,-5.318,-5.32,-5.3204,-5.3211,-5.3186,-5.3233,-5.3315,-5.3325,-5.3219,-5.3217,-5.3216,0,-5.2591,-5.2684,-5.2752,-5.2779,-5.2851,-5.2882,-5.2913,-5.2963,-5.2999,-5.305,-5.3073,-5.313,-5.3161,-5.3205,-5.3235,-5.3215,-5.3316,-5.3296,-5.3333,-5.3332,-5.3353,-5.3351,-5.3441,-5.3371,-5.3371,-5.337,-5.337,0,-5.2657,-5.2713,-5.2767,-5.2808,-5.2872,-5.2904,-5.2966,-5.2998,-5.3043,-5.3091,-5.3108,-5.3153,-5.3189,-5.3239,-5.3262,-5.3329,-5.3342,-5.3358,-5.3364,-5.3358,-5.3356,-5.3378,-5.3374,-5.3373,-5.3372,-5.3372,-5.3371,0,-5.27,-5.2738,-5.2813,-5.2877,-5.2894,-5.2938,-5.2992,-5.3033,-5.3063,-5.3124,-5.314,-5.3187,-5.3247,-5.3281,-5.3355,-5.3371,-5.3446,-5.3448,-5.3429,-5.3432,-5.3468,-5.3464,-5.3575,-5.3592,-5.3509,-5.351,-5.3511,0,-5.274,-5.2784,-5.2853,-5.2888,-5.292,-5.2975,-5.3013,-5.3047,-5.3085,-5.3149,-5.3183,-5.3244,-5.3295,-5.339,-5.343,-5.3488,-5.3493,-5.3528,-5.3501,-5.3495,-5.3495,-5.3493,-5.3498,-5.3532,-5.3533,-5.3534,-5.3534,0,-5.2807,-5.2825,-5.2879,-5.2941,-5.2985,-5.3035,-5.3083,-5.3111,-5.3153,-5.3195,-5.3258,-5.3298,-5.3376,-5.3437,-5.3499,-5.353,-5.354,-5.3543,-5.3555,-5.3549,-5.3536,-5.3545,-5.3443,-5.354,-5.3539,-5.3539,-5.3538,-5.3538,-5.2851,-5.2892,-5.2949,-5.3009,-5.305,-5.3096,-5.3139,-5.3176,-5.3229,-5.3297,-5.3314,-5.338,-5.3433,-5.3518,-5.3551,-5.3604,-5.3597,-5.3614,-5.3619,-5.3622,-5.3625,-5.3528,-5.3615,-5.3615,-5.3614,-5.3614,-5.3614,0,-5.2921,-5.2959,-5.3014,-5.3084,-5.3132,-5.3139,-5.3194,-5.3234,-5.3293,-5.3342,-5.3393,-5.3466,-5.3527,-5.3573,-5.3635,-5.3668,-5.3674,-5.3683,-5.3681,-5.3689,-5.3626,-5.361,-5.3677,-5.3677,-5.3677,-5.3677,-5.3677,-5.3677,-5.2963,-5.3034,-5.3058,-5.315,-5.3188,-5.3255,-5.3286,-5.3329,-5.3369,-5.3451,-5.3503,-5.3533,-5.3582,-5.3648,-5.3704,-5.3716,-5.3738,-5.3747,-5.376,-5.37,-5.3693,-5.3686,-5.3672,-5.3751,-5.3751,-5.3819,-5.3819,-5.382]}]]